CZ-6A DEB, 54966

Orbit data source: Space-Track

CZ-6A DEB, 54966 is space debris in SSO originally from a launch on Fri, 11 Nov 2022 UTC launched from the Taiyaun Space Center, China (TSC). Debris objects in space refer to the collection of defunct objects orbiting the Earth. Examples of debris include non-operational satellites, rocket bodies, and fragments generated from explosions, collisions, or faulty payload assembly.

Loading next visibility...
Identifier
54966, 2022-151TF
Orbit
SSO
Country
Flag of CNCN / PRC
Related business
Manufacturer
SAST
Mission
Spacecraft
Bus & Motor
Unknown
Mass
Unknown
Launch date (UTC)
2022-11-11 (4 years ago)
Launch vehicle
Unknown
Launch site
Taiyaun Space Center, China (TSC)
Object type
Payload
Rocket body
Debris
Shape & HBR
Unknown shape, 0.1 m
Radar Cross Section
Medium (>0.1 m² and <1 m²)

Expand to show TLE details & history
Last TLE update: 11 hours ago

TLE from 11 hours ago
0 CZ-6A DEB
1 54966U 22151TF  26237.29968816  .00003141  00000-0  33130-3 0  9992
2 54966  98.7355   4.9229 0123037 279.7366  78.9968 14.84760431202875
Epoch: 2026-08-25T07:11Z
TLE epoch observation values (Epoch: 2026-08-25T07:11:33.057Z)
Latitude
-0.00005°
Longitude
-76.53386°
Altitude
601.94 km
Speed
7.567 km/s
True Right ascension
00h 19m 41s
True Declination
0° 00' 00"
Sunlit
Object was in full shadow at epoch
Visualization orbit readout
Latitude
Unknown
Longitude
Unknown
Altitude
Unknown
Speed
Unknown
Apparent Right ascension
Unknown
Apparent Declination
Unknown
Sunlit
N/A
Visualization observer readout
Local Sidereal Time
09:48:07
Azimuth
Unknown
Elevation
Unknown
Doppler factor
Unknown
Orbital elements
Apogee altitude
697.408 km
Perigee altitude
525.414 km
Semi-major axis
6,989.548 km
Eccentricity
0.0123
Inclination
98.7355°
RAAN
4.9229°
Arg. of periapsis
279.7366°
True anomaly
80.38472°
Mean anomaly
78.9968°
Eccentric anomaly
79.69037°
Mean motion
3.71424 °/min
Orbital period
96.92 mins
BSTAR
0.0003313
Loading maneuver chart data...
Computing Atmospheric mass density...
Loading historical data...
Loading historical data...
Loading historical data...
Loading historical data...
Loading historical data...
Loading historical data...
Loading historical data...

Documentation

Showing up to 5 results
|